Regional Weather Roundup
Issued by NWS

Home | Current Version | Previous Version | Graphics & Text | Print | Product List | Glossary On
Versions: 1 2 3 4 5 6 7 8 9 10 11 12 13 14 15 16 17 18 19 20 21 22 23 24 25 26 27 28 29 30 31 32 33 34 35 36 37 38 39 40 41 42 43 44 45 46 47 48 49 50
000
ASUS43 KMPX 060110
RWRMN
WEATHER ROUNDUP FOR MINNESOTA
NATIONAL WEATHER SERVICE TWIN CITIES/CHANHASSEN MN
800 PM CDT SUN JUL 05 2015


NOTE: "FAIR" INDICATES FEW OR NO CLOUDS BELOW 12,000 FEET WITH NO
SIGNIFICANT WEATHER AND/OR OBSTRUCTIONS TO VISIBILITY. N/A MEANS
CURRENT SKY AND/OR WEATHER CONDITIONS ARE NOT AVAILABLE.

MNZ060>063-068>070-060200-
   Twin Cities Metro

CITY           SKY/WX    TMP DP  RH WIND       PRES   REMARKS
TWIN CITIES    MOCLDY    84  69  60 S16G24    29.81F
ST PAUL        MOCLDY    82  69  64 S17G24    29.81F
CRYSTAL        CLEAR     85  69  58 S13G22    29.79F
BLAINE         PTCLDY    84  70  61 S17G23    29.80F
LAKEVILLE      CLEAR     79  70  73 S7        29.83S
EDEN PRAIRIE   CLOUDY    82  70  66 S12       29.80F
SOUTH ST PAUL  MOCLDY    82  67  59 S13G22    29.84R
LAKE ELMO      MOCLDY    81  70  69 S16G22    29.84F
$$
MNZ001>005-007-008-013>017-022>024-027-028-060200-
   Northwest Minnesota

CITY           SKY/WX    TMP DP  RH WIND       PRES   REMARKS
BEMIDJI        CLOUDY    69  67  94 NW7       29.81R
HALLOCK        PTSUNNY   68  63  83 NW6       29.85R HAZE
ROSEAU         MOSUNNY   70  64  83 NW10      29.83R HAZE
WARROAD        MOSUNNY   70  66  88 NW12      29.82R
THIEF RVR FALL MOSUNNY   72  64  78 NW10      29.84R
CROOKSTON      MOSUNNY   73  66  78 N13       29.84R
FOSSTON        MOSUNNY   73  64  73 NW13G18   29.83R
DETROIT LAKES  MOSUNNY   73  66  78 N20G26    29.82R
MOORHEAD       PTSUNNY   73  66  78 N15G21    29.81S
PARK RAPIDS    MOSUNNY   81  68  64 SW6       29.76F THUNDER
MAHNOMEN       CLOUDY    73  65  78 N13       29.82R
$$
MNZ006-009>011-018-025>026-060200-
   North Central Minnesota

CITY           SKY/WX    TMP DP  RH WIND       PRES   REMARKS
BAUDETTE       CLOUDY    71  62  73 N9        29.80R
FLAG ISLAND    PTSUNNY   70  64  83 NW13      29.80R
INTL FALLS     PTSUNNY   71  64  78 W8        29.77R
WASKISH        MOSUNNY   73  64  73 NW10      29.80R
BIG FORK       TSTM      70  66  88 W3        29.80R
LONGVILLE      PTSUNNY   79  70  73 S6        29.76S
GRAND RAPIDS   MOCLDY    79  66  65 S8        29.76R
CRANE LAKE     CLOUDY    70  68  94 W1        29.76R
COOK           HAZE      73  70  88 CALM      29.74R THUNDER VSB 1/2
WALKER         TSTM      70  65  84 N9G18     29.79R
$$
MNZ012-019>021-037-060200-
   Northeast Minnesota

CITY           SKY/WX    TMP DP  RH WIND       PRES   REMARKS
DULUTH         MOCLDY    79  68  69 S9        29.79R
ELY            MOCLDY    79  64  61 S9        29.74S
HIBBING        CLOUDY    79  66  64 S7        29.74F THUNDER
DULUTH HARBOR  MOCLDY    64  63  94 NE6       29.77S
TWO HARBORS    MOCLDY    73  64  73 CALM      29.77S
SILVER BAY     PTCLDY    72  63  73 CALM      29.77S
GRAND MARAIS     N/A     57  53  86 NE5       29.77F
G MARAIS ARPRT CLOUDY    70  57  64 S5        29.82F
$$
MNZ029>031-032-039>041-046>048-054>057-064-060200-
   West Central Minnesota

CITY           SKY/WX    TMP DP  RH WIND       PRES   REMARKS
FERGUS FALLS   PTSUNNY   81  70  69 NW10      29.76R
WHEATON        PTSUNNY   79  70  73 NW13      29.75F
MORRIS         PTSUNNY   84  70  61 S13       29.72F THUNDER
ALEXANDRIA     PTSUNNY   83  70  64 S5        29.77F
ELBOW LAKE     FAIR      81  72  72 NW12      29.75F
WADENA         MOSUNNY   81  70  69 S3        29.76F
GLENWOOD       MOSUNNY   81  72  74 S7        29.77F
APPLETON       MOSUNNY   84  66  54 S8        29.72F
BENSON         MOSUNNY   82  66  57 SW7       29.75S
ORTONVILLE     TSTM      82  70  65 S5        29.72F
MADISON        MOSUNNY   82  66  57 S6        29.73F
WILLMAR          N/A     84  72  65 S3        29.76F
$$
MNZ033>034-036-042>043-049>051-058-059-060200-
   Central Minnesota

CITY           SKY/WX    TMP DP  RH WIND       PRES   REMARKS
ST CLOUD       CLEAR     83  71  67 S9        29.77S
SAUK CENTRE    FAIR      81  71  71 S7        29.77F
PAYNESVILLE    PTCLDY    80  70  71 SE8       29.77F
AITKIN         PTCLDY    81  70  69 S9        29.76S
PINE RIVER       N/A     81  70  69 S7        29.80S
BRAINERD       MOCLDY    81  69  67 S9        29.77S
STAPLES        MOSUNNY   81  68  65 S6        29.76F
LONG PRAIRIE   FAIR      79  70  73 S6        29.78S
LITTLE FALLS   PTCLDY    82  68  61 S7        29.77S
LITCHFIELD     CLEAR     84  75  74 S5        29.77S HX  92
BUFFALO        CLEAR     83  70  64 S7        29.79F
MAPLE LAKE     CLEAR     83  73  72 S5        29.78F
$$
MNZ037-044-045-052-053-060200-
   East Central Minnesota

CITY           SKY/WX    TMP DP  RH WIND       PRES   REMARKS
PRINCETON      PTCLDY    84  72  65 S8        29.78S
MORA           PTCLDY    79  68  69 S13G21    29.80R
CAMBRIDGE      PTCLDY    84  70  61 S10       29.78R
RUSH CITY      LGT RAIN  81  69  68 S9        29.79F
MOOSE LAKE     CLOUDY    79  68  69 S6        29.76S
HINCKLEY       CLOUDY    81  70  69 S8G16     29.79S
CLOQUET        MOCLDY    79  66  65 S9        29.79S
MCGREGOR       PTCLDY    81  70  69 S13G20    29.78S
$$
MNZ071>073-080-081-089-090-097-098-060200-
   Southwest Minnesota

CITY           SKY/WX    TMP DP  RH WIND       PRES   REMARKS
GRANITE FALLS  MOSUNNY   84  72  66 S13       29.75F HX  90
CANBY          MOSUNNY   83  70  64 S8        29.74F
MARSHALL       MOSUNNY   84  70  61 S14       29.75F
REDWOOD FALLS  PTCLDY    86  71  60 S16       29.76F HX  91
OLIVIA         PTCLDY    81  68  65 S9        29.76F
PIPESTONE      MOSUNNY   82  72  69 S13       29.80F
WINDOM         PTCLDY    82  68  61 S10G18    29.82S
WORTHINGTON    PTCLDY    82  68  61 S15       29.82R
JACKSON        PTCLDY    82  70  65 S13G21    29.84R
TRACY          PTSUNNY   85  72  64 S10       29.78F HX  91
SLAYTON        MOSUNNY   84  71  64 S14G20    29.81F
$$
MNZ065>067-074>077-082>085-091>093-060200-
   South Central Minnesota

CITY           SKY/WX    TMP DP  RH WIND       PRES   REMARKS
MANKATO        CLEAR     82  68  61 S10G16    29.82F
NEW ULM        PTCLDY    82  70  65 S14       29.80S
FAIRMONT       PTCLDY    82  66  57 S13       29.82F
GLENCOE        CLEAR     85  73  67 S7        29.79F HX  91
FARIBAULT      CLEAR     81  70  69 S14       29.85S
OWATONNA       CLEAR     81  66  61 S15G21    29.86S
WASECA         CLEAR     79  68  69 S12       29.86F
ALBERT LEA     CLEAR     81  66  61 S15       29.87S
$$
MNZ078>079-086>088-094>096-060200-
   Southeast Minnesota

CITY           SKY/WX    TMP DP  RH WIND       PRES   REMARKS
ROCHESTER      PTCLDY    78  66  66 S16G26    29.90F
RED WING       PTCLDY    82  66  57 SE9         N/A
STANTON        PTCLDY    81  66  61 S14G21    29.83F
DODGE CENTER   PTCLDY    79  66  65 S14G21    29.89S
WINONA         MOCLDY    79  64  61 S5        29.90F
AUSTIN         PTCLDY    81  66  61 S9G16     29.89S
PRESTON        PTCLDY    76  65  68 S10       29.93S
$$
ABBREVIATIONS USED IN REMARKS
   TC - TEMPERATURES IN CELSIUS
  WCI - WIND CHILL INDEX
   HX - HEAT INDEX
  VSB - VISIBILITY
$$


USA.gov is the U.S. government's official web portal to all federal, state and local government web resources and services.